Location: Dallas
(32.7833°N, 96.8000°W)
Time: 12:55:21
(UTC-05:00)

N. Korean satellite - Pass Details

Date: 28 November 2017
Orbit: 455 x 508 km, 97.2° (Epoch: 22 October)

Event Time Altitude Azimuth Distance (km) Brightness Sun altitude
Rises 18:32:22 0° 169° (SSE) 2,496 10.2 -14.8°
Reaches altitude 10° 18:34:23 10° 169° (S) 1,633 9.3 -15.2°
Maximum altitude 18:37:53 86° 259° (W) 487 6.5 -16.0°
Drops below altitude 10° 18:41:31 10° 348° (NNW) 1,682 9.3 -16.7°
Sets 18:43:37 0° 349° (N) 2,580 10.2 -17.1°
